Find Starlink 37117

NORAD ID: 68212 Int'l Des: 2026-053 Owner: SPXS Country: US Constellation: starlink operational
LEOCIRCULARRETROGRADE

当前视图

正在加载3D地球...

About Starlink 37117

Starlink 37117 (NORAD 68212) is a starlink constellation satellite (v2 mini) launched Mar 17, 2026 by SPXS of US. It operates in LEO, CIRCULAR, RETROGRADE orbit with a mass of 575.00 kg.

关于 Starlink 37117

正在加载描述...

即将过境

Passes for default location (London). Set your location on the main map for personalized predictions.

高度历史

Loading altitude history...

两行轨道根数

1 68212U 26053F 26167.20525538 .00014415 00000-0 44795-3 0 9994
2 68212 97.2853 42.3088 0001539 94.6707 265.4712 15.33447780 15310
Epoch: Jun 16, 2026 • Age: 7 hours

当前状态

高度 468.5 km
速度 7.63 km/s
星下点 27.79°N, 143.9°E
发射日期 Mar 17, 2026
运行时间 0.2 years
类型 internet

技术详情

分类 Payload
质量 575.00 kg
干质量 530.00 kg
总质量 575.00 kg
长度 0.30 m
直径 4.10 m
跨度 29.00 m
形状 Box + pan
制造商 SPXS
平台类型 Starlink V2MO
阶段状态 In Orbit
所有者/国家 SPXS/US

Most Searched